Left ArrowRight Arrow

35.59393, -105.2239

Hourly Observations for June 14, 2024

Temp ( °F °C ) Dew Point ( °F °C ) Humidity (%) Winds ( mph kmh ) Pressure ( in mb ) Visibility ( mi km ) Precip ( " mm )
12:53 am 00:53 Clear 64 17.8 44 6.7 48 48 SE 15 24 29.85 1011 10 16 0.00 0.00
1:53 am 01:53 Clear 64 17.8 45 7.2 50 50 SSE 17 28 29.84 1011 10 16 0.00 0.00
2:53 am 02:53 Clear 63 17.2 45 7.2 52 52 SW 12 19 29.85 1011 10 16 0.00 0.00
3:53 am 03:53 Clear 61 16.1 44 6.7 54 54 W 7 11 29.85 1011 10 16 0.00 0.00
4:53 am 04:53 Clear 53 11.7 45 7.2 74 74 E 9 15 29.89 1012 10 16 0.00 0.00
5:53 am 05:53 Sunny 54 12.2 45 7.2 71 71 ENE 10 17 29.92 1013 10 16 0.00 0.00
6:53 am 06:53 Sunny 57 13.9 47 8.3 69 69 N 6 9 29.93 1014 10 16 0.00 0.00
7:53 am 07:53 Sunny 64 17.8 49 9.4 58 58 Calm 29.96 1014 10 16 0.00 0.00
8:53 am 08:53 Sunny 66 18.9 53 11.7 63 63 SSE 7 11 29.96 1015 10 16 0.00 0.00
9:53 am 09:53 Sunny 70 21.1 51 10.6 51 51 S 9 15 29.95 1014 10 16 0.00 0.00
10:53 am 10:53 Sunny 73 22.8 52 11.1 48 48 SSW 6 9 29.92 1013 10 16 0.00 0.00
11:46 am 11:46 Mostly Cloudy with Nearby Thunderstorms 72 22.2 51 10.6 48 48 W 13 20 29.74 1007 10 16 0.00 0.00
11:53 am 11:53 Mostly Cloudy with Nearby Thunderstorms 72 22.2 51 10.6 48 48 W 15 24 29.94 1014 10 16 0.00 0.00
12:12 pm 12:12 Cloudy 71 21.7 49 9.4 45 45 WSW 10 17 29.76 1008 10 16 0.00 0.00
12:53 pm 12:53 Mostly Cloudy 70 21.1 52 11.1 53 53 SSW 14 22 29.97 1015 10 16 0.00 0.00
1:53 pm 13:53 Mostly Cloudy 72 22.2 50 10 46 46 NNW 6 9 29.95 1014 10 16 0.00 0.00
2:53 pm 14:53 Cloudy with Light Rain 67 19.4 52 11.1 59 59 W 5 7 30.01 1016 10 16 0.01 0.13
3:40 pm 15:40 Cloudy 67 19.4 47 8.3 49 49 WNW 18 30 29.83 1010 10 16 0.01 0.13
3:53 pm 15:53 Cloudy with Light Rain 65 18.3 47 8.3 52 52 NW 18 30 29.98 1015 10 16 0.01 0.13
4:53 pm 16:53 Partly Cloudy 68 20 48 8.9 49 49 SSW 3 6 29.94 1014 10 16 0.01 0.13
5:53 pm 17:53 Mostly Sunny 73 22.8 46 7.8 38 38 S 21 33 29.89 1012 10 16 0.01 0.13
6:53 pm 18:53 Partly Cloudy 68 20 47 8.3 47 47 SW 9 15 29.91 1013 10 16 0.00 0.00
7:53 pm 19:53 Partly Cloudy 66 18.9 47 8.3 50 50 WSW 10 17 29.94 1014 10 16 0.00 0.00
8:53 pm 20:53 Cloudy 63 17.2 48 8.9 58 58 NW 12 19 29.96 1014 10 16 0.00 0.00
9:15 pm 21:15 Cloudy with Nearby Thunderstorms 62 16.7 46 7.8 56 56 NNW 8 13 29.83 1010 10 16 0.00 0.00
9:30 pm 21:30 Mostly Cloudy 62 16.7 46 7.8 56 56 ESE 3 6 29.83 1010 10 16 0.00 0.00
9:53 pm 21:53 Clear 60 15.6 45 7.2 57 57 S 7 11 29.93 1014 10 16 0.00 0.00
10:53 pm 22:53 Clear 59 15 46 7.8 62 62 SE 9 15 29.91 1013 10 16 0.00 0.00
11:53 pm 23:53 Mostly Clear 56 13.3 50 10 80 80 S 10 17 29.92 1013 10 16 0.00 0.00

Powered by Vaisala Xweather